www.pogodaiklimat.ru

Погода и климат >> Архив погоды >> Россия >> Калмыкия >> Кетченеры


ПОГОДА в Кетченерах

  • Прогноз погоды в Кетченерах
  • Монитор погоды в Кетченерах

АРХИВ ПОГОДЫ в Кетченерах

Время (UTC), дата Ветер
(напр.,м/с)
 
Видим.   Явления Облачность Т
(С)
Тd
(С)
f
(%)
Тe
(С)
Тes
(С)
Комфортность P
(гПа)
Po
(гПа)
Тmin
(С)
Tmax
(С)
R
(мм)
R24
(мм)
S
(см)
03 13.05 З 3 20 км 10/10 600 м
[Cb calv]
+15.1 +13.0 87 +14 +14 1015.0 1008.1 +15.0
09 13.05 З 4 20 км {ливн. осадки} 10/10 600 м
[Cb calv]
+18.0 +14.1 78 +18 +18 1015.5 1008.6
15 13.05 З 4 20 км в посл. час ливневой дождь 9/6 600 м
[Cb calv Ac trans]
+17.2 +15.3 89 +17 +17 1013.8 1006.9 +18.9 8
21 13.05 З 2 20 км 9/3 600 м
[Cb calv Ac trans Ci fib]
+16.3 +14.0 86 +16 +16 1014.1 1007.2
03 14.05 ЮЗ 4 10 км слаб. ливневой дождь 10/10 300 м
[Cb calv]
+15.2 +13.4 89 +14 +14 1013.5 1006.6 +14.9 0.0
09 14.05 З 4 20 км 8/6 600 м
[Cb calv Ac trans]
+22.4 +15.3 64 +26 +29 жарко 1013.1 1006.4
15 14.05 З 2 20 км 5/3 600 м
[Cb calv Ac trans Ci fib]
+21.6 +14.5 64 +25 +25 комфорт 1012.0 1005.3 +24.3
21 14.05 СЗ 2 2000 м дымка 3/0
[Ac trans]
+15.6 +14.8 95 +15 +15 1013.1 1006.2
03 15.05 З 3 4000 м дымка 8/0
[Ac trans Ci fib]
+15.3 +13.9 91 +15 +15 1012.8 1005.9 +14.8
09 15.05 З 3 20 км 6/6 1500 м
[Cu hum]
+25.2 +16.2 57 +29 +34 душно 1013.3 1006.6
15 15.05 СЗ 2 20 км 5/5 600 м
[Cb calv]
+26.9 +13.6 44 +29 +30 жарко 1013.2 1006.5 +27.8
21 15.05 З 2 20 км ясно +18.6 +15.9 84 +20 +20 1014.1 1007.3
03 16.05 З 1 20 км ясно +18.9 +14.7 77 +21 +23 комфорт 1014.4 1007.6 +15.4
09 16.05 ЮВ 1 20 км 1/1 1500 м
[Cu med, cong]
+29.9 +9.0 27 +29 +48 жарко 1014.4 1007.8
15 16.05 С 1 20 км 1/0
[Ac trans Ci fib]
+30.1 +8.5 26 +29 +31 жарко 1013.4 1006.8 +32.2
21 16.05 З 1 20 км ясно +17.3 +14.3 83 +18 +18 1014.4 1007.6
03 17.05 З 1 20 км 1/0
[Ci fib]
+19.9 +13.3 66 +23 +24 комфорт 1014.2 1007.4 +14.6
09 17.05 С 2 20 км 4/3 1500 м
[Cu hum Ci fib]
+31.0 +9.3 26 +30 +42 жарко 1013.5 1007.0
15 17.05 СВ 5
{11}
20 км 8/0
[Ac trans Ci fib]
+28.0 +13.8 42 +30 +31 жарко 1012.5 1005.9 +32.5
21 17.05 СВ 3 20 км 4/0
[Ac trans]
+19.2 +11.9 63 +21 +21 комфорт 1015.1 1008.2
03 18.05 СВ 3 20 км 8/0
[Ac trans Ci fib]
+15.5 +5.1 50 +15 +16 1015.6 1008.7 +14.6
09 18.05 СВ 5
{11}
20 км пыльный позёмок 3/0
[Ac trans Ci fib]
+22.9 +1.2 24 +22 +30 комфорт 1014.4 1007.7
15 18.05 СВ 3 20 км 1/0
[Ac trans]
+23.7 +2.3 25 +23 +24 комфорт 1012.0 1005.3 +24.8
21 18.05 СВ 3 20 км 1/0
[Ci fib]
+16.4 +1.8 37 +16 +16 1012.4 1005.5
03 19.05 штиль 0 20 км 6/0
[Ac trans Ci fib]
+15.2 +4.1 47 +15 +17 1012.4 1005.5 +12.6
09 19.05 СВ 3 20 км 3/0
[Ac trans Ci fib]
+24.7 +2.8 24 +24 +36 комфорт 1012.2 1005.5
15 19.05 СЗ 2 20 км 3/0
[Ac trans Ci fib]
+25.7 +3.2 23 +25 +26 комфорт 1011.6 1004.9 +26.9

 

Местоположение метеостанции Кетченеры (Калмыкия, Россия): широта 47.32 долгота 44.57 высота над уровнем моря 58 м.

В архиве по умолчанию представлена погода в Кетченерах за последнюю неделю. Архивные данные за месяц целиком и за предыдущие месяцы, начиная с января 2011 года, Вы можете получить, выбрав интересующий диапазон дат из раскрывающегося списка и нажав кнопку "Ввод!".


*Определитесь, кто Вы:
робот инопланетянин человек

Внимание! Время в таблицах - всемирное. Для получения местного времени необходимо прибавить поправку, которая равна 3 ч.

Смотрите также архив погоды в соседних городах и на ближайших метеорологических станциях:

Погода в Малых Дербетах (Калмыкия, Россия) (69 км)
Погода в Элисте (Калмыкия, Россия) (107 км)
Погода в Ремонтном (Ростовская область, Россия) (108 км)
Погода в Котельниково (Волгоградская область, Россия) (112 км)
Погода в Юсте (Калмыкия, Россия) (134 км)
Погода в Яшкуле (Калмыкия, Россия) (140 км)
Погода в Черный Яр (Астраханская область, Россия) (143 км)
Погода в Волгограде город (Волгоградская область, Россия) (150 км)
Погода в Утте (Калмыкия, Россия) (153 км)
Погода в Нижнем Чире (Волгоградская область, Россия) (156 км)

Пояснения к столбцам:

Ветер - указаны скорость ветра в м/с - средняя за 10 мин, порывы в срок и между сроками (в фигурных скобках) и направление, откуда дует ветер: С - северный, СВ - северо-восточный, В - восточный, ЮВ - юго-восточный, Ю - южный, ЮЗ - юго-западный, З - западный, СЗ - северо-западный.
Видимость - горизонтальная дальность видимости в метрах или километрах. При видимости от 1 до 10 км при отсутствии осадков обычно наблюдается дымка, при ухудшении видимости до 1 км и менее - туман. В сухую погоду видимость может ухудшаться дымом, пылью или мглою.
Явления - указаны атмосферные явления, наблюдавшиеся в срок или в последний час перед сроком; фигурными скобками обозначены явления, наблюдавшиеся между сроками (за 1-3 часа до срока); квадратными скобками обозначены град или гололедные отложения с указанием их диаметра в мм.
Облачность - указаны через наклонную черту общая и нижняя облачность в баллах и высота нижней границы облаков в метрах; квадратными скобками обозначены формы облаков: Ci - перистые, Cs - перисто-слоистые, Cc - перисто-кучевые, Ac - высококучевые, As - высокослоистые, Sc - слоисто-кучевые, Ns - слоисто-дождевые, Cu - кучевые, Cb - кучево-дождевые. Подробнее классификацию облаков см. в Атласе облаков (PDF).
T - Температура воздуха - температура, измеренная на высоте 2 м над землей.
Td - Температура точки росы - температура, при понижении до которой содержащийся в воздухе водяной пар достигнет насыщения.
f - Относительная влажность воздуха - влажноcть воздуха, измеренная на высоте 2 м над землей.
Te - Эффективная температура - температура, которую ощущает одетый по сезону человек в тени. Характеристика душности погоды. При расчете учитывается влияние влажности воздуха и скорости ветра на теплоощущения человека.
Tes - Эффективная температура на солнце - температура, которую ощущает человек, с поправкой на солнечный нагрев. Характеристика знойности погоды. Зависит от высоты солнца над горизонтом, облачности и скорости ветра. Ночью, в пасмурную погоду, а также при ветре 12 м/с и более поправка равна нулю.
P - Атмосферное давление - приведенное к уровню моря атмосферное давление.
Po - Атмосферное давление - измеренное на уровне метеостанции атмосферное давление.
Tmin - Минимальная температура - минимум температуры воздуха на высоте 2 м над землей.
Tmax - Максимальная температура - максимум температуры воздуха на высоте 2 м над землей.
R - Количество осадков - Количество выпавших осадков за период времени, мм. При наведении курсора мыши на число - период времени, за который выпало указанное количество осадков.
R24 - Количество осадков - Количество выпавших осадков за 24 часа, мм.
S - Снежный покров - Высота снежного покрова, см. При наведении курсора мыши на число - состояние снежного покрова и степень покрытия местности в баллах.